Regional Weather Roundup
Issued by NWS

Home | Current Version | Previous Version | Graphics & Text | Print | Product List | Glossary On
Versions: 1 2 3 4 5 6 7 8 9 10 11 12 13 14 15 16 17 18 19 20 21 22 23 24 25 26 27 28 29 30 31 32 33 34 35 36 37 38 39 40 41 42 43 44 45 46 47 48 49 50
000
ASUS43 KFSD 151610
RWRSD

WEATHER ROUNDUP FOR SOUTH DAKOTA
NATIONAL WEATHER SERVICE SIOUX FALLS SD
1000 AM CST FRI DEC 15 2017

NOTE: "FAIR" INDICATES FEW OR NO CLOUDS BELOW 12,000 FEET WITH NO
SIGNIFICANT WEATHER AND/OR OBSTRUCTIONS TO VISIBILITY.


SDZ001>005-009-010-012>017-151700-
NORTHWEST AND NORTH CENTRAL SOUTH DAKOTA

CITY           SKY/WX    TMP DP  RH WIND       PRES   REMARKS
BUFFALO          N/A     36  23  59 W16       29.68F
FAITH            N/A     30  25  81 SW8       29.77F WCI  22
MOBRIDGE       CLOUDY    32  24  72 S7        29.74F WCI  26
$$

SDZ012>016-024>037-041>051-057-063-072>074-151700-
SOUTHWEST AND SOUTH CENTRAL SOUTH DAKOTA

CITY           SKY/WX    TMP DP  RH WIND       PRES   REMARKS
RAPID CTY ARPT CLOUDY    37  22  54 VRB3      29.83R
PIERRE         CLOUDY    29  22  75 W8        29.83F WCI  21
CUSTER         CLOUDY    41   8  25 VRB7G17   29.84R
ELLSWORTH AFB  CLOUDY    38  18  43 SW5       29.81R
PHILIP         CLOUDY    29  22  75 W14       29.84S WCI  18
PINE RIDGE     CLOUDY    36  20  52 W14G22    29.89F
SPEARFISH      FAIR      46  14  27 W17       29.82F
WINNER         FAIR      33  24  69 SW10      29.88R WCI  25
$$

SDZ004>011-016>023-039-040-151700-
NORTHEAST SOUTH DAKOTA

CITY           SKY/WX    TMP DP  RH WIND       PRES   REMARKS
ABERDEEN       CLOUDY    30  26  85 W9        29.83R WCI  22
WATERTOWN      PTSUNNY   29  27  92 SW12      29.81F WCI  19
BROOKINGS      CLOUDY    30  27  88 W9        29.84F WCI  22
SISSETON         N/A     25  24  96 SE9       29.82F WCI  15
$$

SDZ017-020-022-023-036>040-048>070-151700-
SOUTHEAST SOUTH DAKOTA

CITY           SKY/WX    TMP DP  RH WIND       PRES   REMARKS
SIOUX FALLS    MOSUNNY   34  26  72 W7        29.88F WCI  28
HURON          CLOUDY    33  26  75 SW8       29.86R WCI  26
CHAMBERLAIN    CLOUDY    31  27  86 SW3       29.88R
MITCHELL       MOSUNNY   32  24  72 SW10      29.88F WCI  24
YANKTON        CLOUDY    34  24  67 SW10      29.91F WCI  26
$$

ABBREVIATIONS USED IN REMARKS
   TC - TEMPERATURE IN CELSIUS
  WCI - WIND CHILL INDEX
   HX - HEAT INDEX
  VSB - VISIBILITY




USA.gov is the U.S. government's official web portal to all federal, state and local government web resources and services.